Location: Newark
(51.2625°N, 13.3939°E)
Time: 00:20:23
(UTC+00:00)

Transit 2A Rocket - Pass Details

Date: 18 January 2021
Orbit: 594 x 909 km, 66.7° (Epoch: 03 March)

Event Time Altitude Azimuth Distance (km) Brightness Sun altitude
Rises 16:59:24 0° 302° (WNW) 3,139 8.8 -13.1°
Reaches altitude 10° 17:03:18 10° 331° (NNW) 2,139 7.5 -13.7°
Maximum altitude 17:05:21 13° 357° (N) 1,935 7.0 -14.0°
Drops below altitude 10° 17:07:21 10° 22° (NNE) 2,065 6.9 -14.3°
Enters shadow 17:07:34 10° 25° (NNE) 2,096 6.9 -14.3°
